Location: Kerderff
(47.7256°N, 3.3331°W)
Time: 07:12:23
(UTC+00:00)

Daily predictions for brighter satellites

Satellite Brightness Start Highest point End
(mag) Time Altitude Azimuth Time Altitude Azimuth Time Altitude Azimuth
SL-8 Rocket 4.3 20:02:06 10° SSW 20:08:17 78° W 20:14:33 10° N
Cosmos 2082 Rocket 3.6 20:05:15 10° SE 20:08:59 18° E 20:12:43 10° ENE
Cosmos 1500 Rocket 3.5 20:10:11 10° S 20:14:29 82° E 20:18:50 10° N
Cosmos 2322 Rocket 4.4 20:15:52 10° N 20:18:13 12° NNE 20:20:34 10° NE
Ariane Rocket 3.8 20:13:29 10° S 20:18:26 53° W 20:23:24 10° NNW
USA 186 3.6 20:17:55 10° SSW 20:19:45 21° W 20:21:34 10° NW
Resurs 1-3 3.6 20:15:30 10° SSE 20:19:52 77° ENE 20:24:17 10° N
Meteor 1-4 Rocket 4.2 20:17:24 10° NNE 20:19:54 18° ENE 20:22:22 10° ESE
SL-08 R/B 4.5 20:16:37 10° S 20:22:49 74° E 20:28:58 10° NNE
FREGAT/IRIS 4.3 20:20:55 10° SSW 20:23:16 28° W 20:25:38 10° NW
SL-8 R/B 4.1 20:19:30 10° WNW 20:24:13 53° SSW 20:28:49 11° SE
CZ-2C R/B 2.6 20:19:17 10° NNE 20:24:29 88° WNW 20:29:42 10° SSW
Cosmos 407 Rocket 4.2 20:19:49 10° SSE 20:24:35 35° ESE 20:29:21 10° NE
Terra 3.9 20:22:44 10° E 20:24:46 13° NE 20:26:48 10° NNE
USA 234 3.7 20:19:39 10° ESE 20:26:04 60° NNE 20:32:28 10° NW
Meteor 1-27 Rocket 4.1 20:25:00 10° N 20:30:47 53° ENE 20:36:35 10° SSE
Meteor 1-10 Rocket 4.3 20:25:42 10° N 20:31:23 82° ENE 20:37:09 10° SSE
Cosmos 1782 4.2 20:28:59 10° NNW 20:32:46 40° W 20:36:31 10° SSW
ERBS 3.6 20:32:33 10° WSW 20:35:45 43° NNW 20:38:57 10° NE
BREEZE-M DEB (TANK) 3.7 20:30:57 10° WNW 20:36:22 30° SW 20:38:59 10° SSE
Cosmos 1805 Rocket 3.5 20:33:12 10° S 20:37:36 71° E 20:42:03 10° NNE
H-2A R/B 4.4 20:33:58 10° SW 20:37:58 22° W 20:41:54 10° NW
SPOT 5 4.3 20:35:54 10° ESE 20:38:49 19° ENE 20:41:50 10° NNE
Cosmos 1980 Rocket 2.9 20:37:07 10° NNW 20:42:32 42° NE 20:47:05 14° ESE
SPOT 1/Viking Rocket 4.2 20:39:53 13° SE 20:44:12 40° ENE 20:49:03 10° N
SL-4 R/B 2.5 20:42:49 10° SSW 20:46:26 33° SE 20:49:48 10° ENE
BREEZE-M DEB (TANK) 2.1 20:44:57 10° WSW 20:47:26 89° SSE 20:53:04 10° ENE
Genesis I 4.3 20:44:21 10° NNW 20:47:55 34° NE 20:50:44 15° ESE
Cosmos 972 4.4 20:42:46 10° NNW 20:48:03 88° ENE 20:52:44 11° SSE
Cosmos 1140 Rocket 3.8 20:45:15 10° S 20:50:10 44° ESE 20:55:09 10° NE
ATLAS 5 CENTAUR R/B 2.9 20:45:23 10° NW 20:51:00 56° SW 20:57:17 11° SSE
Cosmos 389 Rocket 3.1 20:51:06 10° NNW 20:54:28 53° W 20:57:50 10° S
Cosmos 2228 Rocket 4.4 20:50:49 10° NNW 20:54:58 40° W 20:59:04 10° SSW
Cosmos 1812 3.1 20:53:46 10° NNW 20:57:34 63° W 21:01:22 10° S
Cosmos 1697 Rocket 2.7 20:52:46 10° NNW 20:58:25 90° W 21:03:04 15° SSE
Cosmos 1833 Rocket 2.6 20:53:33 10° SSW 20:59:08 71° ESE 21:04:45 10° NNE
Cosmos 1633 Rocket 3.3 20:55:05 11° SSE 20:59:10 49° E 21:03:27 10° NNE
SPOT 3 Rocket 4.4 20:56:49 10° S 21:01:51 49° W 21:06:54 10° NNW
Cosmos 1867 4.1 21:00:28 10° S 21:05:25 37° ESE 21:10:25 10° NE
CENTAUR R/B 3.7 21:04:46 17° ESE 21:05:58 18° ESE 21:10:14 10° ENE
Cosmos 1707 Rocket 3.6 21:04:47 10° NNW 21:09:09 78° W 21:12:53 14° S
Resurs 01 Rocket 2.4 21:05:38 10° S 21:09:55 50° W 21:14:15 10° NNW
FALCON 9 DEB 3.6 21:08:55 10° SSW 21:12:10 37° SE 21:15:22 10° ENE
Landsat 7 3.8 21:08:59 17° SSE 21:12:38 81° ENE 21:17:25 10° NNW
Cosmos 1441 Rocket 4.0 21:10:06 10° SSW 21:13:48 50° WNW 21:17:30 10° N
deb Kosmos-1763 4.2 21:14:16 20° S 21:16:29 47° ESE 21:20:01 10° NNE
Cosmos 676 Rocket 4.2 21:14:02 10° S 21:19:02 50° ESE 21:24:11 10° NNE
ATLAS 5 CENTAUR R/B 3.8 21:18:23 10° N 21:20:08 16° NE 21:22:52 10° E
Cosmos 192 4.5 21:15:19 10° NNW 21:20:12 61° ENE 21:22:57 25° SE
IGS 5A 3.4 21:17:35 20° S 21:20:25 83° WSW 21:24:36 10° NNW
Meteor 1-25 Rocket 4.5 21:17:53 19° SSE 21:21:37 47° E 21:26:59 10° NNE
Cosmos 1470 Rocket 3.9 21:19:31 24° SSE 21:21:54 47° E 21:26:08 10° NNE
Cosmos 1934 Rocket 4.0 21:17:29 10° S 21:23:51 83° E 21:30:16 10° N
Aureole 1 Rocket 4.4 21:18:10 10° S 21:24:49 68° ESE 21:32:59 10° NNE
Cosmos 2360 4.3 21:19:57 10° NNW 21:25:42 74° WSW 21:29:33 21° SSE
Shenzhou-11 Module 3.8 21:24:28 10° WSW 21:25:14 14° SW 21:25:14 14° SW
SWAS 4.5 21:22:23 10° SSW 21:26:43 84° WNW 21:31:04 10° NNE
GP-B 3.0 21:23:13 10° N 21:27:41 84° E 21:30:41 21° S
NOSS 3-2 (A) 3.6 21:26:03 10° S 21:31:23 45° ESE 21:37:26 10° NE
USA 267 3.3 21:26:37 10° NE 21:33:11 84° NNW 21:39:45 10° WSW
Cosmos 921 Rocket 3.1 21:29:04 10° NNW 21:33:14 56° ENE 21:34:51 33° SE
Cosmos 1862 Rocket 3.6 21:31:13 10° N 21:35:44 84° W 21:38:10 26° S
NOSS 3-2 (C) 4.0 21:35:51 27° SE 21:37:29 31° ESE 21:42:57 10° NE
COSMOS 2406 4.3 21:32:10 10° SW 21:37:42 47° NW 21:43:14 10° NNE
ERS-1 Rocket 2.9 21:36:09 28° SSE 21:38:52 78° ENE 21:43:54 10° NNW
OPS 6432 4.4 21:35:03 10° SW 21:39:17 77° SE 21:42:32 10° NE
SAR-Lupe-2 3.6 21:37:42 10° NNE 21:41:14 54° ESE 21:41:55 45° SE
SL-16 R/B 3.1 21:36:05 10° NNW 21:41:23 38° NE 21:44:17 23° ESE
Lacrosse 5 2.6 21:37:20 10° NW 21:42:16 48° NNE 21:45:32 20° E
Cosmos 468 Rocket 4.4 21:38:15 10° NNW 21:43:27 51° ENE 21:45:45 30° ESE
Cosmos 1954 Rocket 4.0 21:47:00 10° SSW 21:52:20 89° ESE 21:57:42 10° NNE
Cosmos 2082 Rocket 2.3 21:46:41 10° SSW 21:52:23 78° WNW 21:58:06 10° NNE
Meteor 1-4 Rocket 4.0 21:51:54 10° NNW 21:55:01 30° W 21:56:38 20° SW
Spot 2 Rocket 4.4 21:51:36 17° SSW 21:55:13 44° W 22:00:07 10° NNW
Cosmos 1184 Rocket 3.5 21:53:56 28° SW 21:55:23 53° WNW 21:58:38 10° N
Cosmos 2278 4.1 21:50:01 10° NW 21:55:37 56° WSW 21:58:39 26° S
CARTOSAT-1 3.7 21:57:12 34° S 21:58:56 67° WSW 22:03:16 10° NNW
Terra 1.7 22:00:01 40° SSE 22:01:44 81° ENE 22:06:32 10° NNW
Cosmos 1933 Rocket 3.5 22:01:23 37° S 22:03:05 88° ESE 22:07:33 10° N
Cosmos 2322 Rocket 2.8 21:58:21 10° NNW 22:03:50 45° NE 22:06:13 30° ESE
Okean 1 3.3 22:02:08 10° N 22:06:12 83° W 22:07:07 52° S
Cosmos 1238 Rocket 2.6 22:06:53 51° WSW 22:07:12 54° W 22:10:07 10° N
Cosmos 1602 3.7 22:06:47 51° SSW 22:07:42 87° W 22:11:40 10° N
Cosmos 2100 Rocket 4.3 22:05:35 35° SE 22:07:43 49° E 22:13:35 10° NNE
USA 234 3.5 22:06:06 32° SSE 22:09:07 58° SW 22:15:34 10° WNW
Meteor 1-20 Rocket 4.5 22:05:30 17° SSW 22:10:04 71° WNW 22:15:56 10° N
Cosmos 1437 Rocket 2.5 22:06:41 10° N 22:10:31 73° ENE 22:10:50 68° ESE
Cosmos 1605 Rocket 4.2 22:05:45 16° SSW 22:10:43 69° W 22:16:49 10° N
Cosmos 1869 Rocket 3.9 22:13:01 45° ESE 22:13:17 46° E 22:17:33 10° NNE
SPOT 5 3.1 22:15:08 36° SSW 22:16:33 52° W 22:20:49 10° NNW
Cosmos 2360 Rocket 3.3 22:12:44 10° NNW 22:17:55 34° NE 22:20:20 24° E
JB-3 4.3 22:16:34 10° NNE 22:20:33 67° E 22:20:44 66° ESE
ATLAS 3B R/B 3.7 22:21:12 25° ESE 22:21:12 25° ESE 22:25:48 10° ENE
Iridium 4 Rocket 3.3 22:21:45 50° ESE 22:22:01 51° E 22:26:08 10° NNE
Geosat 4.3 22:20:48 39° ESE 22:22:22 55° NE 22:27:17 10° NNW
Meteor 1-19 Rocket 4.2 22:17:10 10° NNW 22:22:35 74° W 22:24:36 40° S
Cosmos 2173 Rocket 4.0 22:21:11 40° SSE 22:23:13 60° E 22:29:15 10° NNE
Cosmos 1703 Rocket 3.5 22:19:02 10° NNW 22:23:25 74° W 22:24:15 55° SSW
Cosmos 2242 Rocket 4.1 22:19:22 10° NNW 22:23:42 54° W 22:24:57 40° SW
Cosmos 1500 3.6 22:25:10 48° ENE 22:25:10 48° ENE 22:28:19 10° NNE
Cosmos 405 Rocket 3.3 22:24:28 40° WSW 22:25:23 50° WNW 22:29:02 10° N
Genesis I 4.4 22:22:02 10° WNW 22:25:26 30° WSW 22:25:37 30° WSW
SL-4 R/B 2.0 22:22:04 10° WSW 22:25:52 67° NNW 22:27:13 35° NE
Cosmos 1980 Rocket 3.3 22:21:19 10° NW 22:26:28 36° WSW 22:28:51 25° SSW
USA 238 DEB 3.6 22:20:36 10° SW 22:27:15 88° NW 22:34:14 10° NE
USA 238 3.6 22:20:43 10° SW 22:27:21 89° NW 22:34:20 10° NE
ALOS 2 4.3 22:27:44 20° ENE 22:28:26 21° ENE 22:31:41 10° NNE
Cosmos 1763 Rocket 3.5 22:24:23 10° NNW 22:29:45 80° WSW 22:31:09 50° S
Meteor 1-14 Rocket 4.3 22:29:24 32° SSW 22:32:14 80° WNW 22:38:13 10° N
Cosmos 1536 4.4 22:34:39 24° ENE 22:34:39 24° ENE 22:37:05 10° NNE
Cosmos 1666 4.1 22:37:32 27° ENE 22:37:32 27° ENE 22:39:49 10° NNE
Cosmos 2333 Rocket 3.9 22:33:28 10° N 22:38:09 24° NE 22:41:19 16° E
Cosmos 2016 Rocket 4.2 22:39:51 45° SE 22:41:27 57° E 22:47:41 10° NNE
Meteor 1-5 Rocket 4.3 22:40:38 49° SSE 22:42:13 70° E 22:48:09 10° NNE
Meteor 1-13 Rocket 4.2 22:36:42 10° N 22:42:14 65° ENE 22:43:23 52° SE
Cosmos 2061 Rocket 4.1 22:41:23 46° SE 22:42:51 57° E 22:48:54 10° NNE
Okean 1-7 3.5 22:40:31 10° NNW 22:44:43 49° W 22:45:21 45° WSW
Cosmos 1459 Rocket 3.9 22:42:35 43° S 22:44:50 84° E 22:51:13 10° N
MOS 1-B Rocket 3.8 22:40:01 10° NNE 22:45:41 62° ESE 22:46:44 52° SSE
Cosmos 2221 Rocket 3.7 22:41:55 10° N 22:46:21 59° ENE 22:46:29 59° E
FALCON 9 DEB 4.0 22:45:42 10° W 22:48:49 50° NW 22:48:49 50° NW
Cosmos 1733 Rocket 4.0 22:50:59 35° ENE 22:50:59 35° ENE 22:54:26 10° NNE
Okean 3 3.4 22:46:13 10° N 22:50:30 80° ENE 22:50:30 80° ENE
SL-27 R/B 3.6 22:53:09 37° NNE 22:53:09 37° NNE 22:55:17 10° NNE
CENTAUR R/B 2.4 22:51:50 27° SW 22:55:24 88° SE 23:02:35 10° NE
Cosmos 1850 Rocket 4.3 22:54:34 35° SW 22:56:45 66° WNW 23:02:01 10° NNE
Thor Agena Rocket 3.7 22:51:54 10° NNE 22:56:53 54° E 22:57:00 54° ESE
Cosmos 967 Rocket 4.5 22:52:49 10° NW 22:59:15 79° NE 23:01:03 49° SE
Meteor 2-4 Rocket 4.0 22:53:59 10° NNW 22:59:35 60° W 23:00:58 46° SSW
Cosmos 1802 Rocket 4.0 22:58:40 47° S 23:00:43 89° E 23:07:08 10° N
Cosmos 44 3.2 22:56:08 10° NW 23:01:02 86° NE 23:01:33 73° SE
Spot 4 3.7 23:06:33 78° SE 23:06:52 86° ENE 23:11:43 10° NNW
Cosmos 2346 Rocket 4.3 23:03:46 10° N 23:09:52 84° W 23:11:12 57° S
Cosmos 2233 Rocket 4.2 23:14:31 50° SE 23:15:32 55° E 23:21:42 10° NNE
USA 267 4.3 23:09:41 10° NE 23:15:49 45° NNW 23:21:58 10° W
Cosmos 841 Rocket 3.7 23:16:37 10° NNW 23:21:43 55° WSW 23:22:05 53° WSW
NOSS 3-2 (A) 4.4 23:16:35 10° WSW 23:22:14 46° NW 23:28:44 10° NE
Cosmos 540 Rocket 3.7 23:17:50 10° NNW 23:22:53 55° WSW 23:23:10 54° WSW
Lacrosse 5 2.4 23:20:24 10° WNW 23:24:41 46° WSW 23:24:41 46° WSW
Cosmos 1816 Rocket 4.4 23:19:00 10° N 23:25:19 80° W 23:26:36 58° SSW
SL-16 R/B 2.9 23:20:15 10° NW 23:25:31 40° WSW 23:26:08 39° WSW
NOSS 3-2 (C) 3.9 23:23:11 16° WSW 23:27:55 59° NW 23:34:35 10° NE
Cosmos 2322 4.0 23:22:48 10° NNW 23:28:26 59° ENE 23:29:31 50° ESE
Cosmos 1833 4.2 23:28:44 61° ESE 23:28:46 61° ESE 23:34:21 10° NNE
Cosmos 1378 Rocket 3.9 23:24:46 10° N 23:28:49 57° NE 23:28:49 57° NE
Cosmos 2084 Rocket 3.8 23:35:30 61° NNW 23:35:30 61° NNW 23:39:32 10° NE
Cosmos 2208 Rocket 4.4 23:30:27 10° NNW 23:35:31 48° WSW 23:35:41 48° WSW
Cosmos 1814 Rocket 4.3 23:30:35 10° NNW 23:35:37 51° WSW 23:35:45 51° WSW
Cosmos 2219 Rocket 2.8 23:31:24 10° NNW 23:36:56 49° NE 23:38:19 40° E
Tsikada Rocket 4.0 23:32:09 10° NNW 23:38:30 73° W 23:39:45 57° SSW
Terra 4.1 23:38:55 12° WSW 23:40:05 13° W 23:42:23 10° WNW
EO 1 Del DPAF 4.1 23:37:03 10° N 23:39:56 47° NNW 23:39:56 47° NNW
Cosmos 2237 4.3 23:36:36 10° NW 23:42:14 60° WSW 23:42:34 59° SW
Cosmos 1975 Rocket 4.4 23:38:30 10° N 23:42:25 30° ENE 23:42:25 30° ENE
Cosmos 2333 4.2 23:37:04 10° NNW 23:42:53 74° ENE 23:43:44 63° ESE
Cosmos 1242 Rocket 4.0 23:43:50 10° NNW 23:46:07 35° NW 23:46:07 35° NW
Cosmos 2322 Rocket 3.2 23:42:41 10° NW 23:47:44 33° WSW 23:48:01 33° WSW
Helios 1A 3.7 23:49:48 47° NE 23:49:48 47° NE 23:53:27 10° N
Cosmos 1486 Rocket 4.1 23:52:11 64° E 23:52:11 64° E 23:57:05 10° NNE
Meteor 1-11 Rocket 4.3 23:51:38 42° WSW 23:52:58 50° WNW 23:58:33 10° N
